FENGYUN 1C DEB, 30073

Orbit data source: Space-Track

FENGYUN 1C DEB, 30073 is space debris in SSO originally from a launch on Mon, 10 May 1999 UTC launched from the Taiyaun Space Center, China (TSC). Fengyun 1C debris stems from the Chinese weather satellite Fengyun-1C, which was intentionally destroyed by a Chinese anti-satellite missile in 2007. This event dramatically increased the amount of space debris, with thousands of trackable fragments posing hazards to satellites and human spaceflight. The Fengyun 1C debris cloud has become a focal point in discussions about space sustainability and the need for international regulations to prevent the creation of new debris.

Loading next visibility...
Identifier
30073, 1999-025QA
Orbit
SSO
Country
Flag of CNCN / PRC
Related business
Manufacturer
Unknown
Mission
Spacecraft
Bus & Motor
Unknown
Mass
Unknown
Launch date (UTC)
1999-05-10 (27 years ago)
Launch vehicle
Unknown
Launch site
Taiyaun Space Center, China (TSC)
Object type
Payload
Rocket body
Debris
Shape & HBR
Unknown shape, 0.1 m
Radar Cross Section
Small (<0.1 m²)

Expand to show TLE details & history
Last TLE update: 1 day ago

TLE from 1 day ago
0 FENGYUN 1C DEB
1 30073U 99025QA  26144.94080766  .00001637  00000-0  78681-3 0  9995
2 30073  99.4221 133.2527 0052170 178.0513 250.0720 14.19697872992409
Epoch: 2026-05-24T22:34Z
TLE epoch observation values (Epoch: 2026-05-24T22:34:45.781Z)
Latitude
65.84665°
Longitude
-109.57217°
Altitude
850.678 km
Speed
7.427 km/s
True Right ascension
07h 26m 37s
True Declination
65° 43' 11"
Sunlit
Object was in daylight at epoch
Visualization orbit readout
Latitude
Unknown
Longitude
Unknown
Altitude
Unknown
Speed
Unknown
Apparent Right ascension
Unknown
Apparent Declination
Unknown
Sunlit
N/A
Visualization observer readout
Local Sidereal Time
13:59:33
Azimuth
Unknown
Elevation
Unknown
Doppler factor
Unknown
Orbital elements
Apogee altitude
861.14 km
Perigee altitude
785.998 km
Semi-major axis
7,201.706 km
Eccentricity
0.00522
Inclination
99.4221°
RAAN
133.2527°
Arg. of periapsis
178.0513°
True anomaly
249.51123°
Mean anomaly
250.072°
Eccentric anomaly
249.79149°
Mean motion
3.55132 °/min
Orbital period
101.37 mins
BSTAR
0.00078681
Loading maneuver chart data...
Computing Atmospheric mass density...

Documentation

Showing up to 5 results
|